Погода в Лиски

Погода в Лиски : погода сейчас, прогноз погоды и архив. Всё, что Вы хотите узнать о погоде в Лиски!

Поиск расширенной информации на нашем сайте:

Другие новости

Новости СМИ2

Главная страница сайта

Новости сайта

02.10.2013

Напоминаем, что на нашем новом сайте вы можете получить высокодетализированные прогнозы погоды по пунктам России, СНГ и мира (включающие важные для авиации метеовеличины, такие как направление и скорость ветра, видимость, явления погоды, количество и форма облачности, нижняя и верхняя граница облачности), а также ознакомиться с разнообразными материалами по авиационной метеорологии и подборкой полезных ссылок на эту тему.

Сайт Метеоцентр.Азия посвящён разработке технологий оптимизации авиаметеорологического обслуживания, включая проектирование и перспективное создание нескольких автоматизированных авиаметеорологических систем:
- система выпуска высокодетальных прогностических карт явлений погоды для нижнего воздушного пространства по России и ближнему зарубежью;
- система верификации прогнозов TAF (выпускаемых синоптиками официальных АМСГ РФ и ближнего зарубежья) и AUTOTAF (выпускаемых сайтом Метеоцентр.Азия) - выявление ошибок, онлайн-сопоставление с фактической погодой METAR, автоматическое внесение коррективов в прогнозы при резком отклонении фактической погоды от прогноза, подсчёт оправдываемости прогнозов по элементам и в целом;
- система обработки, анализа и отображения авиаметеорологической информации для применения провайдерами метеорологической информации.

Рекомендуем: У нас. http://wwprint.ru/ полноцветная печать

Погода в Лиски - сегодня

Время (UTC), дата Ветер
(°,м/с) 
Видим.   Явления Облачность Т
(°С)
Тd
(°С)
f(%) Тe
(°С)
Pmin
(гПа)
dP
(гПа)
Po
(мм)
O2
(г/м3)
Тmin Tmax R s Состояние
почвы
09 18.01.17 010 (С) 10 км    8/8 720 м 
[Sc]
-6.5 -8.1 88 -8  1037.3  767  317           
12 18.01.17 010 (С) 10 км    10/10 800 м 
[Sc]
-4.6 -7 83 -4  1036.8  -0.4  766  315           
15 18.01.17 010 (С) 10 км    10/10 800 м 
[Sc]
-4.3 -7 81 -6  1037.3  0.6  767  315    -4.3       
18 18.01.17 030 (СВ) 10 км    10/10 800 м 
[Sc]
-4.6 -7.3 81 -4  1037.9  0.5  767  315           
21 18.01.17 320 (СЗ) 4000 м  дымка  10/10 480 м 
[St]
-7.8 -8.8 93 -8  1038.1  0.1  767  319           
00 19.01.17 240 (ЮЗ) 10 км    10/10 480 м 
[St]
-7.4 -8.7 90 -7  1037.1  -1  766  318           
03 19.01.17 270 (З) 10 км  {снег}  10/10 500 м 
[Frnb|Ns]
-7 -8.7 88 -7  1036.7  -0.4  766  318  -8.1    0.0  37  равномерный
сухой снег
100% 
06 19.01.17 240 (ЮЗ) 20000 м  {снег}  8/8 800 м 
[Sc]
-7.6 -9.4 87 -7  1036.6  -0.1  766  318           
09 19.01.17 270 (З) 20000 м    3/3 600 м 
[Sc]
-5.2 -10.2 68 -7  1036  -0.5  766  316           
12 19.01.17 240 (ЮЗ) 20000 м    ясно 
-4.4 -10.4 63 -6  1034.2  -1.7  764  314           
15 19.01.17 270 (З) 20000 м    ясно 
-9.4 -12.9 76 -11  1033.2  -1.3  763  320    -4       
18 19.01.17 260 (З) 20000 м    ясно 
-12.4 -14.4 85 -14  1032.3  -1.1  763  323           
21 19.01.17 240 (ЮЗ) 10 км    10/0 средняя 
[As op]
-12.6 -13.9 90 -17  1030.3  -1.9  761  323           
00 20.01.17 240 (ЮЗ) 10 км  {ливн. осадки}  10/10 600 м кучево-дожд. 
[Cb cap]
-11.8 -13.1 90 -15  1027.9  -2.3  759  321           
03 20.01.17 240 (ЮЗ) 10 км    10/10 630 м кучево-дожд. 
[Cb cap]
-10.4 -12.4 85 -14  1024.8  -2.9  757  318  -13    0.0  37  равномерный
сухой снег
100% 
06 20.01.17 250 (З) 10 км    10/10 630 м кучево-дожд. 
[Cb cap]
-8.7 -11.1 83 -12  1022.9  -1.7  756  316           
09 20.01.17 250 (З) 3{10}  10 км    10/10 630 м кучево-дожд. 
[Cb cap]
-6.8 -9.2 83 -9  1021.8  -1  755  313           
12 20.01.17 270 (З) 10 км    10/10 720 м 
[Sc]
-5.2 -8.1 80 -7  1020.1  -1.6  754  311           
15 20.01.17 270 (З) 10 км    10/10 750 м 
[Sc]
-4.7 -6.7 86 -6  1019.6  -0.5  754  310    -4.6       
18 20.01.17 280 (З) 10 км    10/10 630 м кучево-дожд. 
[Cb cap]
-4 -5.9 87 -5  1019.8  0.3  754  309           
21 20.01.17 260 (З) 10 км    10/10 600 м кучево-дожд. 
[Cb cap]
-3.6 -5.4 87 -5  1019.5  -0.3  754  308           
00 21.01.17 250 (З) 10 км    10/10 600 м кучево-дожд. 
[Cb cap]
-3.4 -5.5 85 -6  1018.4  -1  753  308           
03 21.01.17 250 (З) 10 км    10/10 720 м 
[Sc]
-3.5 -5.6 85 -6  1017  -1.4  752  307  -4.7      36  равномерный
сухой снег
100% 
06 21.01.17 260 (З) 10 км  {ливн. осадки}  10/10 630 м кучево-дожд. 
[Cb cap]
-3.2 -4.9 88 -5  1015.8  -1.2  751  307           
09 21.01.17 250 (З) 4000 м  слаб. снег  10/10 450 м 
[Frnb|Ns]
-2.3 -3.5 91 -4  1014.1  -1.6  750  305           
Время (UTC), дата Ветер
(°,м/с) 
Видим.   Явления Облачность Т
(°С)
Тd
(°С)
f(%) Тe
(°С)
Pmin
(гПа)
dP
(гПа)
Po
(мм)
O2
(г/м3)
Тmin Tmax R s Состояние
почвы

Для получения пояснительной информации подведите курсор к названию столбца.

ПОГОДА в Лиски - архив

Всё, что Вы хотите узнать о погоде в Лиски - удобно и подробно!

Выберите нужную дату (начиная с 1 января 2015* года) и нажмите кнопку "Найти".
Будут отображены архивные сводки погоды по пункту Лиски, начиная с указанной даты.


Отображать данные в формате CSV (для использования в таблицах Excel)


Внимание! Наш архив погоды предназначен исключительно для личного некоммерческого использования в познавательных целях. Если Вам необходимы официальные справки о состоянии погоды (для производственных, юридических, коммерческих и т.п. целей), обращайтесь в органы Росгидромета.

*Примечание: данная дата относится к архиву по метеостанциям СССР (Россия, СНГ, Балтия).
Архив по метеостанциям Зарубежной Европы и Азии (кроме Китая) хранится 10 дней, по другим регионам земного шара (Китай, Африка, Америка, Австралия, Океания) - 1 день.

Лиски - район местоположения метеостанции


Название, широта, долгота, высота метеостанции:
Лиски 51°ш. 39.5°д. 115 м над ур. моря [Российская Федерация]

Дополнительная информация

В oтличие oт бoльшинства пoгoдных сайтoв мы публикуем пoдрoбную метеoинфoрмацию в детальнoм прoфессиoнальнoм фoрмате.

Характеристики температуры и влажнoсти вoздуха измеряются на высoте 2 м в тени вдали oт зданий и деревьев.
Скoрoсть ветра измеряется на высoте 10 м (на урoвне рoста челoвека скoрoсть ветра ниже в 1.5-2 раза). Если метеoстанция нахoдится в гoрoде или в лесу, тo скoрoсть ветра занижена на 2-4 м/с пo сравнению с oткрытым местoм. Скoрoсть ветра над акватoриями крупных рек и oзёр, а также на вершинах хoлмoв на 2-5 м/с выше, чем в oбычных услoвиях.
Атмoсфернoе давление в разных тoчках местнoсти мoжет значительнo oтличаться oт давления на метеoстанции, в зависимoсти oт услoвий рельефа (при пoдъёме на 10 м давление пoнижается примернo на 1 мм рт.ст.).